Worthington, MN

7:21 PM CST on December 03, 2016 (GMT -0600)
Worthington Municipal

Weather History for KOTG - July, 2013

Change the Weather History Date:

Tuesday, July 16, 2013

  Actual Average Record
Temperature  
Mean Temperature 78 °F -  
Max Temperature 87 °F 78 °F 95 °F (2006)
Min Temperature 69 °F 60 °F 46 °F (2014)
Cooling Degree Days 13    
Growing Degree Days 28 (Base 50)    
Moisture  
Dew Point 63 °F    
Average Humidity 60    
Maximum Humidity 83    
Minimum Humidity 38    
Precipitation  
Precipitation 0.00 in - - ()
Sea Level Pressure  
Sea Level Pressure 30.24 in    
Wind  
Wind Speed 10 mph (SSW)    
Max Wind Speed 16 mph    
Max Gust Speed 22 mph    
Visibility 10 miles    
Events      
Averages and records for this station are not official NWS values.
T = Trace of Precipitation, MM = Missing Value Source: NWS Daily Summary

Daily Weather History Graph

Daily Weather History Graph

Search for Another Location

Airport or City:

Trip Planner

Search our weather history database for the weather conditions in past years. The results will help you decide how hot, cold, wet, or windy it might be!

Date:

Astronomy

Jul. 16, 2013 Rise Set
Actual Time 5:55 AM CDT 9:00 PM CDT
Civil Twilight 5:21 AM CDT 9:35 PM CDT
Nautical Twilight 4:36 AM CDT 10:19 PM CDT
Astronomical Twilight 3:43 AM CDT 11:11 PM CDT
Moon 2:38 PM CDT (7/16) 12:31 AM CDT (7/16)
Length of Visible Light 16h 13m
Length of Day
15h 04m
First Quarter, 56% of the Moon is Illuminated
Jul 16
First Quarter
Jul 22
Full
Jul 29
Last Quarter
Aug 6
New
Aug 14
First Quarter

Hourly Weather History & Observations

Time (CDT) Temp. Heat Index Dew Point Humidity Pressure Visibility Wind Dir Wind Speed Gust Speed Precip Events Conditions
12:15 AM 73.4 °F - 64.4 °F 73% 30.20 in 10.0 mi South 8.1 mph - N/A   Clear
12:35 AM 75.2 °F - 64.4 °F 69% 30.20 in 10.0 mi South 9.2 mph - N/A   Clear
12:55 AM 73.4 °F - 64.4 °F 73% 30.21 in 10.0 mi South 9.2 mph - N/A   Clear
1:15 AM 73.4 °F - 64.4 °F 73% 30.21 in 10.0 mi South 9.2 mph - N/A   Clear
1:35 AM 73.4 °F - 64.4 °F 73% 30.21 in 10.0 mi South 9.2 mph - N/A   Clear
1:55 AM 73.4 °F - 64.4 °F 73% 30.21 in 10.0 mi South 9.2 mph - N/A   Clear
2:15 AM 73.4 °F - 64.4 °F 73% 30.21 in 10.0 mi South 10.4 mph - N/A   Clear
2:35 AM 73.4 °F - 64.4 °F 73% 30.21 in 10.0 mi South 8.1 mph 16.1 mph N/A   Clear
2:55 AM 73.4 °F - 64.4 °F 73% 30.21 in 10.0 mi South 9.2 mph - N/A   Clear
3:15 AM 73.4 °F - 64.4 °F 73% 30.20 in 10.0 mi South 8.1 mph - N/A   Clear
3:35 AM 71.6 °F - 64.4 °F 78% 30.20 in 10.0 mi South 6.9 mph - N/A   Clear
3:55 AM 71.6 °F - 64.4 °F 78% 30.20 in 10.0 mi South 10.4 mph - N/A   Clear
4:15 AM 71.6 °F - 64.4 °F 78% 30.20 in 10.0 mi South 10.4 mph - N/A   Clear
4:35 AM 71.6 °F - 64.4 °F 78% 30.20 in 10.0 mi South 9.2 mph - N/A   Clear
4:55 AM 71.6 °F - 64.4 °F 78% 30.20 in 10.0 mi South 10.4 mph - N/A   Clear
5:15 AM 71.6 °F - 64.4 °F 78% 30.21 in 10.0 mi South 9.2 mph - N/A   Clear
5:35 AM 69.8 °F - 64.4 °F 83% 30.21 in 10.0 mi South 9.2 mph - N/A   Clear
5:55 AM 69.8 °F - 64.4 °F 83% 30.21 in 10.0 mi South 8.1 mph - N/A   Clear
6:15 AM 69.8 °F - 64.4 °F 83% 30.22 in 10.0 mi South 8.1 mph - N/A   Clear
6:35 AM 69.8 °F - 64.4 °F 83% 30.22 in 10.0 mi South 8.1 mph - N/A   Clear
6:55 AM 71.6 °F - 64.4 °F 78% 30.23 in 10.0 mi SSW 8.1 mph - N/A   Clear
7:15 AM 71.6 °F - 64.4 °F 78% 30.23 in 10.0 mi SSW 8.1 mph - N/A   Clear
7:35 AM 73.4 °F - 64.4 °F 73% 30.24 in 10.0 mi South 10.4 mph - N/A   Clear
7:55 AM 73.4 °F - 64.4 °F 73% 30.24 in 10.0 mi South 11.5 mph - N/A   Clear
8:15 AM 75.2 °F - 64.4 °F 69% 30.25 in 10.0 mi SSW 11.5 mph - N/A   Clear
8:35 AM 75.2 °F - 66.2 °F 73% 30.26 in 10.0 mi SSW 9.2 mph - N/A   Clear
8:55 AM 77.0 °F - 64.4 °F 65% 30.26 in 10.0 mi SSW 12.7 mph - N/A   Clear
9:15 AM 78.8 °F - 64.4 °F 61% 30.25 in 10.0 mi SSW 11.5 mph - N/A   Clear
9:35 AM 78.8 °F - 64.4 °F 61% 30.26 in 10.0 mi SW 12.7 mph - N/A   Clear
9:55 AM 80.6 °F 82.3 °F 64.4 °F 58% 30.26 in 10.0 mi SW 10.4 mph - N/A   Clear
10:15 AM 80.6 °F 82.3 °F 64.4 °F 58% 30.26 in 10.0 mi SW 11.5 mph - N/A   Clear
10:35 AM 80.6 °F 82.3 °F 64.4 °F 58% 30.26 in 10.0 mi SSW 11.5 mph 16.1 mph N/A   Clear
10:55 AM 82.4 °F 83.9 °F 64.4 °F 54% 30.27 in 10.0 mi SW 10.4 mph 16.1 mph N/A   Clear
11:15 AM 82.4 °F 83.9 °F 64.4 °F 54% 30.27 in 10.0 mi SW 12.7 mph - N/A   Clear
11:35 AM 82.4 °F 83.9 °F 64.4 °F 54% 30.27 in 10.0 mi SW 12.7 mph 18.4 mph N/A   Clear
11:55 AM 84.2 °F 85.6 °F 64.4 °F 51% 30.27 in 10.0 mi SSW 13.8 mph - N/A   Clear
12:15 PM 84.2 °F 85.6 °F 64.4 °F 51% 30.27 in 10.0 mi SSW 13.8 mph 18.4 mph N/A   Clear
12:35 PM 84.2 °F 85.0 °F 62.6 °F 48% 30.27 in 10.0 mi WSW 11.5 mph - N/A   Clear
12:55 PM 84.2 °F 84.4 °F 60.8 °F 45% 30.27 in 10.0 mi SSW 12.7 mph - N/A   Clear
1:15 PM 86.0 °F 86.1 °F 60.8 °F 43% 30.27 in 10.0 mi SW 12.7 mph - N/A   Clear
1:35 PM 86.0 °F 86.1 °F 60.8 °F 43% 30.27 in 10.0 mi SW 15.0 mph - N/A   Clear
1:55 PM 86.0 °F 86.1 °F 60.8 °F 43% 30.27 in 10.0 mi SW 12.7 mph 19.6 mph N/A   Clear
2:15 PM 86.0 °F 86.1 °F 60.8 °F 43% 30.26 in 10.0 mi SW 11.5 mph 21.9 mph N/A   Clear
2:35 PM 87.8 °F 87.1 °F 59.0 °F 38% 30.26 in 10.0 mi SW 15.0 mph 21.9 mph N/A   Clear
2:55 PM 87.8 °F 87.6 °F 60.8 °F 40% 30.26 in 10.0 mi SSW 16.1 mph - N/A   Clear
3:15 PM 87.8 °F 87.6 °F 60.8 °F 40% 30.26 in 10.0 mi SSW 16.1 mph - N/A   Clear
3:35 PM 87.8 °F 87.6 °F 60.8 °F 40% 30.25 in 10.0 mi SSW 15.0 mph - N/A   Clear
3:55 PM 87.8 °F 88.5 °F 62.6 °F 43% 30.25 in 10.0 mi SSW 15.0 mph 19.6 mph N/A   Clear
4:15 PM 87.8 °F 87.6 °F 60.8 °F 40% 30.25 in 10.0 mi South 12.7 mph 19.6 mph N/A   Clear
4:35 PM 87.8 °F 87.6 °F 60.8 °F 40% 30.25 in 10.0 mi SSW 15.0 mph - N/A   Clear
4:55 PM 87.8 °F 88.5 °F 62.6 °F 43% 30.25 in 10.0 mi South 13.8 mph 17.3 mph N/A   Clear
5:15 PM 87.8 °F 88.5 °F 62.6 °F 43% 30.25 in 10.0 mi SSW 16.1 mph - N/A   Clear
5:35 PM 87.8 °F 88.5 °F 62.6 °F 43% 30.25 in 10.0 mi SSW 12.7 mph - N/A   Clear
5:55 PM 87.8 °F 88.5 °F 62.6 °F 43% 30.25 in 10.0 mi South 13.8 mph 19.6 mph N/A   Clear
6:15 PM 86.0 °F 86.6 °F 62.6 °F 45% 30.24 in 10.0 mi SSW 13.8 mph 19.6 mph N/A   Clear
6:35 PM 86.0 °F 86.6 °F 62.6 °F 45% 30.24 in 10.0 mi SSW 12.7 mph - N/A   Clear
6:55 PM 86.0 °F 86.6 °F 62.6 °F 45% 30.24 in 10.0 mi SSW 11.5 mph - N/A   Clear
7:15 PM 84.2 °F 85.0 °F 62.6 °F 48% 30.24 in 10.0 mi SSW 11.5 mph - N/A   Clear
7:35 PM 84.2 °F 85.0 °F 62.6 °F 48% 30.24 in 10.0 mi South 12.7 mph - N/A   Clear
7:55 PM 84.2 °F 85.0 °F 62.6 °F 48% 30.24 in 10.0 mi SSW 11.5 mph - N/A   Clear
8:15 PM 82.4 °F 83.9 °F 64.4 °F 54% 30.25 in 10.0 mi South 8.1 mph - N/A   Clear
8:35 PM 82.4 °F 83.9 °F 64.4 °F 54% 30.25 in 10.0 mi South 8.1 mph - N/A   Clear
8:55 PM 80.6 °F 81.8 °F 62.6 °F 54% 30.25 in 10.0 mi SSW 9.2 mph - N/A   Clear
9:15 PM 78.8 °F - 64.4 °F 61% 30.25 in 10.0 mi South 8.1 mph - N/A   Clear
9:35 PM 78.8 °F - 62.6 °F 57% 30.26 in 10.0 mi South 8.1 mph - N/A   Clear
9:55 PM 78.8 °F - 62.6 °F 57% 30.27 in 10.0 mi South 6.9 mph - N/A   Clear
10:15 PM 77.0 °F - 62.6 °F 61% 30.27 in 10.0 mi South 6.9 mph - N/A   Clear
10:35 PM 75.2 °F - 62.6 °F 65% 30.27 in 10.0 mi South 8.1 mph - N/A   Clear
10:55 PM 75.2 °F - 62.6 °F 65% 30.27 in 10.0 mi South 6.9 mph - N/A   Clear
11:15 PM 73.4 °F - 64.4 °F 73% 30.27 in 10.0 mi South 8.1 mph - N/A   Clear
11:35 PM 75.2 °F - 62.6 °F 65% 30.28 in 10.0 mi SSW 4.6 mph - N/A   Clear
11:55 PM 73.4 °F - 62.6 °F 69% 30.28 in 10.0 mi SSW 5.8 mph - N/A   Clear